Location: Unspecified
(49.9820°N, 20.4363°E)
Time: 05:07:48
(UTC+02:00)

Vanguard 3 - Pass Details

Date: 19 May 2026
Orbit: 507 x 3204 km, 33.3° (Epoch: 6 June)

Event Time Altitude Azimuth Distance (km) Brightness Sun altitude
Rises 20:01:12 0° 274° (W) 7,079 13.4 2.2°
Reaches altitude 10° 20:09:52 10° 254° (WSW) 5,727 12.2 1.0°
Maximum altitude 20:16:29 14° 231° (SW) 5,008 11.4 0.1°
Drops below altitude 10° 20:22:17 10° 207° (SSW) 4,834 11.0 -0.7°
Sets 20:28:18 0° 183° (S) 5,238 11.0 -1.5°
